Regional Weather Roundup
Issued by NWS

Home | Current Version | Previous Version | Graphics & Text | Print | Product List | Glossary On
Versions: 1 2 3 4 5 6 7 8 9 10 11 12 13 14 15 16 17 18 19 20 21 22 23 24 25 26 27 28 29 30 31 32 33 34 35 36 37 38 39 40 41 42 43 44 45 46 47 48 49 50
000
ASUS43 KIND 291009
RWRIN

WEATHER ROUNDUP FOR INDIANA
NATIONAL WEATHER SERVICE INDIANAPOLIS IN
600 AM EDT THU SEP 29 2016

NOTE: "FAIR" INDICATES FEW OR NO CLOUDS BELOW 12,000 FEET WITH NO
SIGNIFICANT WEATHER AND/OR OBSTRUCTIONS TO VISIBILITY.

* - STATION DOES NOT REPORT WEATHER SUCH AS PRECIPITATION OR FOG.

+ - STATION NOT QUALITY CONTROLLED BY THE NATIONAL WEATHER SERVICE.
    USE DATA WITH CAUTION...ESPECIALLY DEWPOINT AND RELATIVE
    HUMIDITY OBSERVATIONS.

INZ001>003-010>013-019-020-291100-
NORTHWEST INDIANA

CITY           SKY/WX    TMP DP  RH WIND       PRES   REMARKS
GARY /AIRPORT/ LGT RAIN  61  57  88 NE14G33   30.07R
KNOX *+        CLOUDY    55  43  62 N8        30.04R
LA PORTE +     DRIZZLE  N/A N/A N/A NE12      30.07R
MICHIGAN CITY+ RAIN      55  55 100 CALM      30.07R
MONTICELLO +   CLOUDY    55  52  88 NE6       30.00R
RENSSELAER +   CLOUDY    57  55  94 N12G18    30.04R
VALPARAISO     LGT RAIN  56  54  93 NE7       30.06R

$$

LMZ046-743>745-291100-
SOUTHERN LAKE MICHIGAN

STATION/POSITION TIME  TEMP    WIND        PRES    WAVE
                       AIR SEA DIR/SP/G            HT
                 (UTC) (F)     (DEG/KT/KT) (MB)    (FT)
BURNS HARBOR     0940   61      60/ 20/ 24 1017.9R
MICHIGAN CITY    0940   59      40/ 19/ 21   N/A
5NW MICH CITY    1000   62 65   60/ 19/ 25   N/A     7

$$

INZ004-005-014>016-021>024-291100-
NORTH CENTRAL INDIANA

CITY           SKY/WX    TMP DP  RH WIND       PRES   REMARKS
GOSHEN         LGT RAIN  57  54  89 N10       30.03R
LOGANSPORT +   CLOUDY    54  54 100 E5        30.02R
ROCHESTER +    CLOUDY    59  57  94 NE6       30.03R
SOUTH BEND     LGT RAIN  56  55  97 N15       30.06R
WARSAW +       CLOUDY    55  55 100 CALM      30.03R

$$

INZ006>009-017-018-025>027-291100-
NORTHEAST INDIANA

CITY           SKY/WX    TMP DP  RH WIND       PRES   REMARKS
ANGOLA *+        N/A     55  43  62 N5        30.02S
AUBURN +       CLOUDY    55  54  94 NE3       30.02R
FORT WAYNE     CLOUDY    56  53  90 NE8       30.01R
HUNTINGTON +   CLOUDY    55  53  95 CALM      30.01R FOG
KENDALLVILLE + CLOUDY    55  55  97 NE3       30.02S

$$

INZ028-029-035-036-043>045-051>053-291100-
WEST CENTRAL INDIANA

CITY           SKY/WX    TMP DP  RH WIND       PRES   REMARKS
CRAWFORDSVL +  CLOUDY    53  53 100 CALM      30.00R FOG
GREENCASTLE +  FOG       52  52 100 CALM      30.00R VSB 3/4
LAFAYETTE      NOT AVBL
TERRE HAUTE    CLOUDY    55  53  93 N3        29.99S

$$

INZ030>032-037>040-046>048-054>057-064-065-291100-
CENTRAL INDIANA

CITY           SKY/WX    TMP DP  RH WIND       PRES   REMARKS
FRANKFORT +    CLOUDY    57  55  93 NE5       30.02R
GREENWOOD *+   CLOUDY    55  54  94 CALM      29.99S
INDIANAPOLIS   CLOUDY    55  52  89 NE5       29.98R
-EAGLE CREEK   CLOUDY    56  51  84 N6        29.98R
KOKOMO *+      CLOUDY    55  54  94 NE3       30.01R
MARION +       CLOUDY    54  52  95 CALM      30.01R
MT COMFORT *+  CLOUDY    54  52  94 CALM      29.99S
SHELBYVILLE    CLOUDY    56  52  86 CALM      29.98R
ZIONSVILLE +   CLOUDY    53  52  95 N3        30.00R

$$

INZ033-034-041-042-049-050-058-059-291100-
EAST CENTRAL INDIANA

CITY           SKY/WX    TMP DP  RH WIND       PRES   REMARKS
MUNCIE         CLOUDY    55  52  89 N3        29.99R FOG

$$

INZ060-061-067>069-081>083-085>088-291100-
SOUTHWEST INDIANA

CITY           SKY/WX    TMP DP  RH WIND       PRES   REMARKS
EVANSVILLE     PTCLDY    52  49  89 W6        30.02S
HUNTINGBURG *+   N/A     52  46  82 W3        30.01R
WASHINGTON +   CLOUDY    53  53 100 MISG      30.00S

$$

INZ062-063-066-070>080-084-089>092-291100-
SOUTH CENTRAL AND SOUTHEAST INDIANA

CITY           SKY/WX    TMP DP  RH WIND       PRES   REMARKS
BLOOMINGTON    CLOUDY    54  51  90 NW3       29.99S
MADISON *+     CLOUDY    54  52  94 CALM      30.00S
NORTH VERNON + LGT RAIN N/A N/A N/A CALM      29.98S
SEYMOUR +      CLOUDY    55  52  88 CALM      29.98S

$$





USA.gov is the U.S. government's official web portal to all federal, state and local government web resources and services.